Theta_e
318 319 318 317 315 315 318 319 317 314 314 314 312 310 311 312 313 312 310 310 310 310 310 310 308 306 306 307 307 309 312 315 315 314 313 313 313 312 311 311 311 312
319 320 319 317 316 316 318 319 316 314 314 313 311 309 310 311 311 311 310 310 310 309 310 310 307 306 305 305 305 304 306 309 312 314 313 313 312 311 310 309 310 310
319 320 319 317 315 315 317 319 317 316 316 313 310 309 309 310 310 310 309 310 310 310 311 310 309 307 306 304 305 305 304 304 307 311 312 312 312 311 310 307 307 308
320 320 319 317 315 313 317 319 317 318 317 314 310 309 309 310 310 310 308 308 310 311 312 312 311 309 307 306 305 306 306 304 305 307 310 312 312 311 309 308 307 307
321 320 320 318 316 314 317 319 317 318 318 316 313 311 310 311 312 311 309 307 308 310 312 312 312 311 309 307 307 306 306 306 306 306 307 309 311 310 309 308 307 307
321 320 319 318 317 316 317 318 317 318 319 318 317 314 311 312 313 313 311 308 307 307 310 311 311 311 310 309 309 308 306 306 306 306 306 306 308 309 310 309 307 306
320 320 320 318 318 317 317 317 316 318 318 319 319 317 314 313 313 314 313 311 309 307 309 310 310 311 310 310 310 311 309 307 306 307 306 306 306 307 309 310 308 307
321 320 319 318 318 318 317 317 317 318 319 319 319 318 318 316 315 315 314 313 312 310 310 310 311 312 312 311 311 312 312 311 309 308 308 307 307 306 307 309 309 308
321 320 320 319 319 318 318 318 318 319 319 319 320 319 319 318 318 317 316 315 315 313 313 312 312 312 313 312 312 311 313 313 312 311 310 309 309 307 307 308 308 308
321 320 320 320 319 319 319 319 319 319 319 319 320 319 319 319 318 317 317 317 317 316 315 315 314 313 313 314 313 312 313 313 313 313 312 310 310 309 309 308 308 308
321 320 320 320 320 320 320 320 320 319 319 320 320 320 319 319 319 317 316 317 317 318 317 317 317 316 315 315 315 313 313 313 313 313 313 312 311 311 311 310 309 309
322 320 320 320 320 320 320 320 320 319 319 320 319 319 319 319 319 318 317 317 317 318 318 317 318 318 317 317 317 316 316 315 314 313 313 313 313 312 312 312 311 311
321 321 321 320 319 319 320 320 320 320 320 320 319 319 319 319 319 319 318 317 316 317 317 318 318 318 318 318 318 318 317 317 316 315 315 314 314 314 313 313 312 312
320 320 321 320 319 320 320 320 320 321 320 320 320 320 320 320 319 319 319 318 317 317 316 317 318 319 319 319 319 319 318 318 317 317 316 316 315 314 314 313 313 312
320 319 320 320 320 320 320 320 320 320 320 319 320 320 319 319 319 319 319 319 318 318 317 318 319 319 319 319 318 319 319 319 318 318 318 317 316 315 314 314 314 313
320 320 320 320 320 320 320 320 319 319 320 319 318 318 318 318 318 317 317 318 318 318 318 319 320 319 319 318 318 319 319 319 319 319 318 318 317 316 315 315 314 313
321 321 322 321 321 321 320 319 319 319 320 319 319 318 318 318 318 317 318 318 319 319 320 321 320 320 320 320 320 320 319 319 319 319 318 318 317 316 315 316 315 314
321 320 322 322 321 320 320 319 320 321 321 320 320 319 319 318 318 318 317 317 317 318 319 320 320 321 320 321 321 320 320 320 319 319 319 318 317 317 316 315 315 314
316 316 317 317 316 315 316 316 316 317 317 316 316 315 314 314 313 313 313 312 312 313 314 316 317 318 319 319 319 319 320 320 319 319 319 319 318 318 317 317 316 315
311 311 311 311 311 311 311 311 310 310 309 309 309 309 309 309 309 310 310 310 310 310 311 312 313 314 315 316 316 316 317 319 320 320 320 319 319 319 318 318 316 315
307 308 308 308 309 308 308 307 307 307 307 308 308 308 308 308 308 308 308 308 308 309 309 310 310 311 312 313 313 314 315 317 319 319 319 319 319 319 318 318 316 314
306 307 307 307 307 307 306 306 306 306 306 307 306 307 307 307 306 306 306 306 306 307 307 308 309 309 310 310 311 312 314 316 317 318 318 318 317 317 317 317 316 314
306 306 306 307 307 307 307 306 305 305 305 305 305 305 306 307 306 305 304 304 305 306 306 307 307 308 309 310 310 310 312 315 317 317 317 317 316 315 315 314 313 311
306 306 306 306 307 307 307 307 306 305 305 305 305 306 306 306 305 305 304 303 303 304 305 305 306 307 308 309 310 311 313 316 317 317 315 314 313 313 312 311 309 308
305 306 306 306 307 307 307 307 307 306 306 306 306 306 306 306 306 305 304 304 303 303 303 304 306 307 308 310 311 313 314 316 316 315 313 311 310 309 308 307 307 306
304 305 305 306 306 306 306 306 306 307 306 306 306 306 306 306 307 306 306 306 305 304 304 305 307 308 309 311 313 314 314 314 314 313 311 309 308 307 306 304 304 304
Wind_Speed
23 23 22 19 18 17 16 15 14 13 13 12 12 12 13 14 13 12 10 10 10 10 11 11 11 11 10 9 8 9 9 9 9 9 8 9 9 9 9 9 9 9
24 24 23 20 19 17 17 15 14 14 13 12 12 12 13 13 13 12 11 11 10 10 10 11 11 10 10 10 9 9 9 9 10 8 8 9 9 9 9 9 8 8
26 27 25 22 19 17 17 17 15 15 13 13 13 13 13 13 12 12 11 11 11 10 10 10 10 9 9 9 9 9 9 9 9 9 8 9 8 8 8 8 8 8
29 29 27 23 19 17 19 19 17 16 15 13 13 13 13 13 12 11 11 11 12 11 10 9 9 8 8 8 8 9 10 10 10 9 8 9 7 7 8 7 8 9
30 30 28 25 20 16 20 22 19 17 16 14 14 14 14 14 12 11 10 12 13 12 11 10 9 8 8 8 8 9 9 10 10 9 8 8 7 6 6 6 7 9
30 32 31 28 23 18 22 24 21 19 18 16 15 14 14 14 13 11 11 12 13 14 13 12 11 10 9 8 8 8 8 9 9 9 8 8 7 6 6 5 6 7
31 31 30 30 25 20 22 24 23 21 20 19 18 16 15 14 13 12 12 12 13 14 14 14 12 11 10 9 9 8 8 8 8 8 8 7 7 6 6 5 4 5
28 28 27 28 25 21 22 25 24 23 22 22 21 19 17 15 14 15 14 13 13 13 14 14 13 12 11 10 10 9 8 8 8 8 8 7 7 7 7 6 5 4
22 25 25 26 25 22 23 25 25 25 24 24 23 21 19 17 16 16 16 15 15 14 13 13 13 13 12 12 11 10 9 9 8 8 8 7 7 7 8 7 6 5
17 20 20 21 22 22 21 20 19 19 21 23 22 20 20 20 19 19 19 18 18 17 15 14 14 14 14 13 12 12 11 10 10 9 9 9 8 8 8 7 7 6
15 16 15 14 16 17 18 15 13 15 18 20 20 19 21 23 23 23 22 22 22 20 18 16 15 15 14 14 13 13 12 12 12 11 11 11 10 10 10 9 8 7
16 17 17 16 15 16 18 17 16 19 22 21 21 21 22 24 24 24 24 25 26 24 22 19 17 16 15 15 14 14 14 14 14 14 13 13 13 12 12 12 11 10
15 17 18 20 20 21 21 18 18 20 19 17 18 20 21 23 23 23 25 27 29 29 27 23 19 18 17 17 17 17 17 17 17 17 16 16 16 15 15 15 14 13
13 17 20 22 24 23 20 18 18 19 16 13 14 16 17 18 18 18 21 23 25 29 30 26 22 20 19 18 19 20 21 21 21 20 20 20 19 18 18 18 17 16
12 17 21 23 23 21 20 20 20 19 17 17 18 18 18 18 18 17 17 18 21 25 25 22 18 17 16 17 18 20 22 23 23 23 23 23 24 22 21 21 20 19
12 14 17 19 19 18 17 20 21 20 19 21 22 21 19 19 19 19 19 21 22 21 19 16 14 15 15 15 16 17 18 19 20 21 22 24 26 26 25 24 23 23
10 11 13 14 15 14 15 18 19 15 13 15 17 18 18 19 20 20 21 20 17 13 11 11 12 12 12 13 13 14 15 16 17 19 20 22 26 28 27 27 26 26
10 10 11 11 11 11 13 15 14 10 10 12 14 15 15 15 14 12 10 7 4 4 5 6 7 8 8 9 11 11 13 15 16 18 19 20 23 25 27 27 27 27
9 9 9 9 9 8 9 9 9 9 10 11 10 10 9 6 5 3 1 1 2 3 3 4 4 5 6 7 7 8 10 12 13 15 16 17 19 20 22 24 26 27
7 7 7 7 7 7 8 8 8 8 8 8 7 6 4 3 2 1 2 2 3 4 4 5 5 5 6 6 7 8 8 9 10 11 12 14 15 17 18 21 23 25
5 5 6 7 8 8 8 7 7 6 5 5 4 3 2 1 2 2 3 4 5 6 6 7 7 7 8 8 8 9 9 9 9 9 10 11 13 15 16 18 20 22
5 5 6 7 8 8 6 5 4 4 3 2 1 1 1 2 3 5 6 7 8 9 10 10 10 10 11 10 10 10 10 10 9 9 10 10 12 14 15 16 18 19
6 6 6 7 8 9 7 5 4 4 4 4 4 3 4 4 6 7 8 9 10 11 12 13 13 13 13 13 12 12 12 11 10 9 9 10 11 12 12 13 14 16
4 5 5 7 10 11 9 7 6 5 6 6 6 6 6 6 8 8 9 10 12 13 14 15 15 15 14 14 13 13 12 11 10 9 8 8 8 9 9 9 10 11
1 2 3 5 8 10 9 8 8 7 7 7 7 7 7 7 8 8 8 10 11 14 16 17 16 15 15 14 12 11 9 8 9 8 7 6 7 7 8 9 10 11
4 4 4 4 5 6 7 7 8 7 7 7 7 8 8 8 8 8 8 9 10 13 16 16 15 14 13 12 10 8 6 6 8 8 8 9 9 10 11 12 12 11
Wind_Direction
189 187 183 181 183 182 183 191 200 201 200 202 203 194 182 177 176 176 174 167 157 140 130 124 115 113 114 115 121 126 132 132 125 123 120 115 112 107 103 100 101 100
192 192 187 184 186 189 190 196 205 207 206 210 211 203 191 184 181 182 179 175 170 156 144 137 128 123 122 122 123 122 127 131 131 135 129 119 117 111 103 101 101 99
194 195 193 187 185 193 200 203 209 212 212 215 213 208 200 191 185 186 185 182 180 173 163 152 142 137 135 134 132 127 127 128 133 142 140 131 129 120 109 104 103 104
196 198 196 190 186 195 205 206 209 214 214 213 211 209 207 200 191 189 188 187 188 186 179 170 159 151 149 149 145 140 137 133 133 144 148 142 137 129 120 111 104 109
199 201 198 192 186 194 209 210 210 213 214 214 211 209 210 207 200 195 191 190 193 196 192 187 183 173 165 164 161 156 152 145 141 149 157 155 152 147 136 125 116 116
201 204 201 194 187 192 209 212 211 212 214 217 214 211 212 210 208 206 202 198 197 200 201 199 197 192 183 178 175 170 166 158 152 157 163 162 163 165 154 139 128 118
203 206 204 197 190 191 204 211 214 214 216 220 219 217 215 213 215 216 214 211 206 204 207 208 207 203 196 192 186 180 176 173 170 170 171 167 167 177 174 163 144 116
206 207 207 202 194 192 203 211 215 216 219 222 222 220 220 220 222 222 222 222 218 213 213 215 217 214 209 206 202 195 190 190 190 186 184 178 175 182 183 181 178 153
209 207 210 206 197 198 208 214 219 221 222 225 227 224 224 227 232 231 229 231 230 225 219 220 224 224 221 221 219 216 210 207 208 207 204 201 193 189 189 192 197 194
206 203 208 205 199 207 217 220 224 226 225 226 226 226 227 230 234 235 235 235 235 233 228 225 226 226 228 229 230 231 229 225 225 224 225 225 218 208 206 209 212 214
193 190 195 192 195 214 226 228 231 237 239 232 221 222 230 231 231 235 240 243 242 237 232 232 231 230 232 235 236 238 239 240 240 237 238 239 236 231 228 226 223 223
183 183 183 181 192 218 229 229 227 231 238 234 220 223 233 235 235 238 243 251 255 249 237 235 238 237 238 241 243 245 246 248 248 247 248 247 245 242 239 239 237 233
185 193 196 194 204 218 222 219 215 215 221 222 218 224 233 237 239 239 239 247 259 260 249 242 243 244 245 248 250 252 252 252 252 251 252 251 251 248 244 242 242 239
192 209 212 207 210 217 218 214 214 215 216 218 222 229 237 241 241 240 239 242 251 256 253 250 249 250 251 254 257 258 258 257 256 255 255 255 253 251 249 245 243 242
199 208 211 209 210 217 221 223 227 232 235 238 244 249 251 252 249 248 250 249 247 248 248 247 249 251 255 259 262 263 262 261 260 258 258 258 255 253 253 250 246 244
196 198 204 207 210 216 224 229 233 239 244 247 252 257 258 258 255 251 248 245 241 243 244 244 249 256 262 265 266 266 265 264 263 262 260 259 257 253 251 251 250 246
187 195 201 205 209 214 220 222 222 225 231 236 243 248 249 248 245 240 238 237 238 245 254 257 262 266 267 268 268 268 268 267 266 266 264 262 258 254 251 253 252 248
182 193 197 200 206 209 211 212 211 208 209 215 223 227 229 230 229 228 233 244 261 285 285 280 281 282 281 279 277 274 272 270 268 267 265 263 261 258 256 257 256 252
185 192 194 201 208 208 205 201 191 184 185 190 194 196 197 196 195 193 162 30 8 350 331 314 301 294 291 290 290 289 283 277 273 270 268 266 266 264 263 262 259 254
187 194 198 203 201 194 188 176 166 163 160 158 160 161 160 156 148 106 57 27 2 349 333 320 313 305 297 290 290 291 289 285 279 274 271 271 271 271 269 266 262 256
167 174 182 183 175 172 173 170 169 168 160 157 153 139 129 106 60 23 9 357 345 333 324 322 323 318 312 308 302 296 289 283 276 271 272 273 274 274 272 269 265 258
170 173 179 181 178 181 189 191 196 199 195 203 223 57 25 5 358 345 339 338 337 333 327 325 325 321 317 315 312 305 296 284 272 267 271 273 275 275 273 269 264 256
197 200 204 208 208 209 216 223 229 237 246 263 284 296 307 321 327 329 331 331 333 333 330 327 325 322 317 314 312 309 302 289 273 266 267 269 272 273 271 268 261 252
221 228 233 231 223 221 226 233 237 245 254 260 267 275 285 298 307 313 319 325 331 334 332 329 326 322 318 314 309 304 297 284 270 263 262 261 260 256 253 248 236 226
329 289 266 242 229 228 232 234 233 236 241 244 251 263 275 284 289 295 304 314 323 327 328 327 325 322 320 316 309 299 286 271 260 253 241 232 225 212 204 201 196 193
314 323 315 291 262 250 243 235 231 233 237 243 253 262 267 270 272 278 287 296 308 321 326 325 322 318 314 312 309 300 280 256 247 239 220 201 192 185 178 172 171 172